Weather Roundup
Issued by NWS Chicago, IL

Current Version | Previous Version | Text Only | Print | Product List | Glossary On
Versions: 1 2 3 4 5 6 7 8 9 10 11 12 13 14 15 16 17 18 19 20 21 22 23 24 25 26 27 28 29 30 31 32 33 34 35 36 37 38 39 40 41 42 43 44 45 46 47 48 49 50
000
NZUS59 KLOT 300021
HRRLOT

CHICAGO AREA WEATHER ROUNDUP
NATIONAL WEATHER SERVICE CHICAGO/ROMEOVILLE IL
700 PM CDT MON JUN 29 2015

NOTE: "FAIR" INDICATES FEW OR NO CLOUDS BELOW 12,000 FEET WITH NO
SIGNIFICANT WEATHER AND/OR OBSTRUCTIONS TO VISIBILITY.

* THESE STATIONS ARE NOT UNDER NWS QUALITY CONTROL. THEY ALSO MAY NOT
  REPORT WEATHER SUCH AS PRECIPITATION OR FOG.

ILZ005-006-012>014-019>023-300100-
NORTHEAST ILLINOIS

CITY           SKY/WX    TMP DP  RH WIND       PRES   REMARKS
OHARE          PTSUNNY   70  63  78 CALM      29.79R
6HR MIN TEMP:  66; 6HR MAX TEMP:  75; 6HR PCP:  0.21;

MIDWAY         PTSUNNY   73  64  73 W7        29.79S
6HR MIN TEMP:  71; 6HR MAX TEMP:  74; 6HR PCP: TRACE;

AURORA         MOSUNNY   71  62  73 SW5       29.81R
6HR MIN TEMP:  68; 6HR MAX TEMP:  75; 6HR PCP:  0.06;

LANSING*       PTSUNNY   71  62  74 CALM      29.81R
JOLIET*        PTSUNNY   71  67  86 CALM      29.80S
WAUKEGAN       MOSUNNY   67  62  84 SE7       29.79S
6HR MIN TEMP:  67; 6HR MAX TEMP:  70; 6HR PCP: TRACE;

DUPAGE AIRPORT PTSUNNY   70  63  78 CALM      29.80R
6HR MIN TEMP:  66; 6HR MAX TEMP:  75; 6HR PCP:  0.82;

WHEELING       PTSUNNY   71  62  73 S5        29.81R
6HR MIN TEMP:  70; 6HR MAX TEMP:  75; 6HR PCP:  0.01;

KANKAKEE*      PTSUNNY   70  66  86 CALM      29.81S
MORRIS*        LGT RAIN  69  65  86 CALM      29.78S
LEWIS AIRPORT* PTSUNNY   71  64  79 CALM      29.80S
NORTHERLY IS     N/A     66  63  90 CALM        N/A
$$

WIZ051-052-058>065-066-070>072-300100-
SOUTHEAST WISCONSIN

CITY           SKY/WX    TMP DP  RH WIND       PRES   REMARKS
MILWAUKEE      MOSUNNY   70  61  73 SE7       29.79F
6HR MIN TEMP:  67; 6HR MAX TEMP:  73;

KENOSHA*       MOSUNNY   71  61  70 S6        29.79F
RACINE*        SUNNY     68  60  75 S7        29.81F
BURLINGTON     MOSUNNY   70  62  77 S3        29.79S
WAUKESHA       MOSUNNY   70  61  73 SW6       29.81S
WEST BEND      MOSUNNY   66  61  82 SE3       29.79R
$$

INZ001>003-010>013-019-020-300100-
NORTHWEST INDIANA

CITY           SKY/WX    TMP DP  RH WIND       PRES   REMARKS
GARY*          PTSUNNY   72  68  88 CALM      29.80S
MICHIGAN CITY* NOT AVBL
RENSSELAER*    NOT AVBL
VALPARAISO     PTSUNNY   70  64  81 SE5       29.81S
$$

LMZ740>746-300100-
SOUTHERN LAKE MICHIGAN

STATION/POSITION TIME  SKY/WX   TEMP WIND        PRES    VSBY
                                AIR  DIR/SP/G
                 (UTC)          (F)  (DEG/KT/KT) (MB)    (MI)
HARRISON CRIB    0000            65  120/  5/  6   N/A
BURNHAM HARBOR   0000            66   CALM  /  3   N/A
CALUMET HARBOR   2300            66   40/  2/  4   N/A
BURNS HARBOR     2300            68   50/  6/  7 1009.5F
MICHIGAN CITY    0000            67  340/  6/  6   N/A
$$

ABBREVIATIONS USED IN REMARKS
   TC - TEMPERATURE IN CELSIUS
  WCI - WIND CHILL INDEX
   HX - HEAT INDEX
  VSB - VISIBILITY
$$



USA.gov is the U.S. government's official web portal to all federal, state and local government web resources and services.